Weather History for Fort Bragg, NC

Change the Weather History Date:

Sunday, April 7, 2013

  Actual Average Record
Temperature  
Mean Temperature 55 °F -  
Max Temperature 73 °F 69 °F 87 °F (2001)
Min Temperature 37 °F 49 °F 33 °F (2007)
Degree Days  
Heating Degree Days 10    
Growing Degree Days 5 (Base 50)    
Moisture  
Dew Point 41 °F    
Average Humidity 53    
Maximum Humidity 99    
Minimum Humidity 27    
Precipitation  
Precipitation 0.00 in - - ()
Sea Level Pressure  
Sea Level Pressure 30.20 in    
Wind  
Wind Speed 4 mph (SSE)    
Max Wind Speed 12 mph    
Max Gust Speed 17 mph    
Visibility 10 miles    
Events Rain    
Averages and records for this station are not official NWS values.
T = Trace of Precipitation, MM = Missing Value Source: NWS Daily Summary

Daily Weather History Graph

Daily Weather History Graph

Search for Another Location

Airport:

Trip Planner

Search our weather history database for the weather conditions in past years. The results will help you decide how hot, cold, wet, or windy it might be!

Date:

Astronomy

Apr. 07, 2013 Rise Set
Actual Time 6:53 AM EDT 7:42 PM EDT
Civil Twilight 6:28 AM EDT 8:07 PM EDT
Nautical Twilight 5:57 AM EDT 8:38 PM EDT
Astronomical Twilight 5:26 AM EDT 9:09 PM EDT
Moon 5:04 AM EDT (4/7) 5:16 PM EDT (4/7)
Length of Visible Light 13h 39m
Length of Day
12h 48m
Waning Crescent, 8% of the Moon is Illuminated
Apr 7
Waning Crescent
Apr 10
New
Apr 18
First Quarter
Apr 25
Full
May 2
Last Quarter

Hourly Weather History & Observations

Time (EDT) Temp. Windchill Dew Point Humidity Pressure Visibility Wind Dir Wind Speed Gust Speed Precip Events Conditions
12:58 AM 49.6 °F - 37.6 °F 63% 30.27 in 10.0 mi ESE 5.8 mph - N/A   Clear
1:58 AM 47.7 °F - 37.2 °F 67% 30.26 in 10.0 mi ESE 5.8 mph - N/A   Clear
2:58 AM 45.9 °F - 37.4 °F 72% 30.25 in 10.0 mi SE 1.2 mph - N/A   Clear
3:58 AM 43.2 °F - 37.9 °F 82% 30.25 in 10.0 mi Calm Calm - N/A   Clear
4:58 AM 41.0 °F 39.0 °F 39.4 °F 94% 30.25 in 10.0 mi NE 3.5 mph - N/A   Clear
5:58 AM 39.2 °F - 38.7 °F 98% 30.25 in 10.0 mi Calm Calm - N/A   Clear
6:58 AM 37.4 °F - 37.0 °F 99% 30.27 in 10.0 mi NNE 1.2 mph - N/A   Clear
7:58 AM 41.2 °F - 39.9 °F 95% 30.29 in 10.0 mi Calm Calm - N/A   Clear
8:58 AM 48.0 °F - 40.5 °F 75% 30.29 in 10.0 mi ESE 4.6 mph - N/A   Clear
9:58 AM 54.0 °F - 42.3 °F 65% 30.29 in 10.0 mi East 2.3 mph - N/A   Clear
10:58 AM 58.6 °F - 43.2 °F 56% 30.28 in 10.0 mi Variable 3.5 mph - N/A   Clear
11:35 AM 60.8 °F - 42.8 °F 52% 30.26 in 10.0 mi Calm Calm - N/A Rain Light Rain
11:41 AM 62.6 °F - 42.8 °F 48% 30.26 in 10.0 mi SE 5.8 mph - N/A   Clear
11:58 AM 64.0 °F - 42.4 °F 45% 30.27 in 10.0 mi SSE 6.9 mph - 0.00 in   Clear
12:58 PM 68.2 °F - 40.1 °F 36% 30.24 in 10.0 mi Variable 4.6 mph - N/A   Clear
1:06 PM 69.8 °F - 39.2 °F 33% 30.23 in 10.0 mi Variable 2.3 mph - N/A Rain Light Rain
1:16 PM 69.8 °F - 41.0 °F 35% 30.22 in 10.0 mi SW 8.1 mph - N/A   Clear
1:58 PM 70.7 °F - 39.9 °F 33% 30.22 in 10.0 mi Variable 6.9 mph - 0.00 in   Clear
2:58 PM 72.5 °F - 38.8 °F 29% 30.18 in 10.0 mi South 8.1 mph - N/A   Clear
3:58 PM 73.6 °F - 38.5 °F 28% 30.15 in 10.0 mi SSW 5.8 mph - N/A   Clear
4:58 PM 73.2 °F - 38.3 °F 28% 30.14 in 10.0 mi South 10.4 mph - N/A   Clear
5:07 PM 73.4 °F - 37.4 °F 27% 30.12 in 10.0 mi SW 8.1 mph - N/A Rain Light Rain
5:16 PM 71.6 °F - 39.2 °F 31% 30.12 in 10.0 mi SSW 8.1 mph - N/A   Clear
5:58 PM 72.1 °F - 37.4 °F 28% 30.13 in 10.0 mi SSW 11.5 mph 17.3 mph 0.00 in   Clear
6:28 PM 71.6 °F - 37.4 °F 29% 30.12 in 10.0 mi SSW 4.6 mph - N/A Rain Light Rain
6:38 PM 71.6 °F - 39.2 °F 31% 30.12 in 10.0 mi Variable 5.8 mph - N/A   Clear
6:58 PM 70.7 °F - 39.0 °F 32% 30.13 in 10.0 mi SSW 3.5 mph - 0.00 in   Clear
7:15 PM 69.8 °F - 39.2 °F 33% 30.12 in 10.0 mi Calm Calm - N/A Rain Light Rain
7:58 PM 66.2 °F - 42.4 °F 42% 30.13 in 10.0 mi Calm Calm - 0.00 in Rain Light Rain
8:26 PM 64.4 °F - 44.6 °F 49% 30.13 in 10.0 mi Calm Calm - N/A   Clear
8:35 PM 62.6 °F - 44.6 °F 52% 30.13 in 10.0 mi Calm Calm - N/A Rain Light Rain
8:42 PM 62.6 °F - 46.4 °F 55% 30.14 in 10.0 mi Calm Calm - N/A   Clear
8:58 PM 61.3 °F - 48.2 °F 62% 30.15 in 10.0 mi SSE 10.4 mph - 0.00 in   Clear
9:58 PM 64.8 °F - 49.6 °F 58% 30.17 in 10.0 mi South 6.9 mph - N/A   Clear
10:58 PM 63.0 °F - 50.4 °F 63% 30.16 in 10.0 mi South 6.9 mph - N/A   Clear
11:58 PM 61.5 °F - 51.4 °F 69% 30.16 in 10.0 mi South 8.1 mph - N/A   Clear